Flag for Austria Weather past 2 weeks in Amstetten, Lower Austria, Austria

Now
77 °F

Sunny.


Feels Like: 79 °F
Forecast: 58 / 87 °F
Wind: 3 mph from Southeast

Location: Linz / Hoersching-Flughafen

Current Time: Jul 2, 2015 at 12:20:47 PM

Latest Report: Jul 2, 2015 at 11:00 AM


Visibility: 19 mi

Pressure: 30.18 "Hg

Humidity: 54%

Dew point: 59 °F

Location of AmstettenLocation

Historic Weather in Amstetten — Graph

°F

Amstetten temperature yesterday

Maximum temperature yesterday: 84 °F (at 5:00 PM)
Minimum temperature yesterday: 58 °F (at 6:00 AM)
Average temperature yesterday: 72 °F

Past Weeks' High & Low Weather Summary

 TemperatureHumidityPressure
High84 °F (Jul 1, 5:00 PM)98% (Jun 25, 5:00 AM)30.27 "Hg (Jun 25, 5:00 AM)
Low47 °F (Jun 25, 6:00 AM)35% (Jul 1, 4:00 PM)29.72 "Hg (Jun 23, 2:00 AM)
Average62 °F72%30.09 "Hg
* Reported Jun 17 12:00 Noon — Jul 2 11:00 AM, Amstetten, Weather by CustomWeather, © 2015

Note: Actual official high and low records may vary slightly from our data, if they occured in-between our weather recording intervals... More about our weather records

Advertising

Amstetten weather history for previous 24 hours

 ConditionsComfort  
Time TempWeatherWind HumidityBarometerVisibility
11:00 AM
Thu, Jul 2
77 °FSunny.3 mph54%30.18 "Hg19 mi
10:00 AM75 °FSunny.N/A53%30.18 "Hg19 mi
9:00 AM73 °FSunny.N/A61%30.19 "Hg14 mi
8:00 AM69 °FSunny.N/A64%30.19 "Hg18 mi
7:00 AM66 °FSunny.N/A79%30.18 "Hg16 mi
6:00 AM62 °FSunny.N/A81%30.18 "Hg12 mi
5:00 AM61 °FPassing clouds.N/A83%30.17 "Hg14 mi
4:00 AM65 °FPassing clouds.N/A75%30.16 "Hg14 mi
3:00 AM63 °FClear.N/A85%30.16 "Hg18 mi
2:00 AM65 °FClear.N/A76%30.15 "Hg19 mi
1:00 AM65 °FClear.N/A75%30.15 "Hg19 mi
12:00 AM69 °FClear.N/A69%30.13 "Hg22 mi
11:00 PM
Wed, Jul 1
71 °FClear.N/A66%30.12 "Hg18 mi
10:00 PM73 °FClear.N/A58%30.11 "Hg28 mi
9:00 PM76 °FSunny.N/A53%30.09 "Hg28 mi
8:00 PM80 °FPassing clouds.N/A44%30.07 "Hg25 mi
7:00 PM82 °FPassing clouds.5 mph41%30.06 "Hg25 mi
6:00 PM84 °FPassing clouds.5 mph38%30.06 "Hg19 mi
5:00 PM84 °FPassing clouds.5 mph38%30.07 "Hg25 mi
4:00 PM84 °FPassing clouds.5 mph35%30.08 "Hg22 mi
3:00 PM83 °FPassing clouds.5 mph36%30.09 "Hg22 mi
2:00 PM82 °FPassing clouds.5 mph41%30.10 "Hg19 mi
1:00 PM80 °FPassing clouds.5 mph43%30.12 "Hg25 mi
12:00 PM78 °FPassing clouds.N/A52%30.13 "Hg22 mi
Weather by CustomWeather, © 2015

See weather overviewHow to use our weather pages